Simultaneous Nadir Overpasses (SNOs) Predictions

Prediction of SNOs between AQUA and NOAA-19 Satellite Orbit:

Table of predicted SNOs for the next 14.0 days since TLE Epoch: 7/11/2014
Index Date (AQUA) Time (AQUA) Lat,Lon (AQUA) SZA (AQUA ) Date (NOAA-19) Time (NOAA-19) Lat,Lon (NOAA-19) SZA (NOAA-19 ) Distance(km) Time Diff (sec)
1 07/11/2014 11:31:18 -77.12, 172.29 124.45 07/11/2014 11:30:32 -77.11, 172.32 124.45 0.72 46
2 07/11/2014 12:20:30 76.39, -17.50 54.69 07/11/2014 12:21:15 76.38, -17.44 54.67 1.83 45
3 07/13/2014 16:15:39 -77.35, 100.34 123.86 07/13/2014 16:14:27 -77.34, 100.35 123.84 0.20 72
4 07/13/2014 17:04:54 76.77, -89.88 55.45 07/13/2014 17:05:13 76.78, -89.94 55.46 1.69 19
5 07/15/2014 21:49:15 77.03,-161.87 56.10 07/15/2014 21:49:08 77.04,-161.97 56.13 3.10 7
6 07/18/2014 02:33:35 77.25, 126.22 56.74 07/18/2014 02:33:02 77.26, 126.13 56.77 2.37 33
7 07/18/2014 03:22:42 -76.36, -62.95 124.32 07/18/2014 03:23:46 -76.35, -62.87 124.35 2.26 64
8 07/20/2014 07:17:52 77.35, 54.77 57.27 07/20/2014 07:16:53 77.35, 54.79 57.28 0.58 59
9 07/20/2014 08:07:03 -76.65,-134.99 123.58 07/20/2014 08:07:42 -76.64,-134.94 123.60 1.50 39
10 07/22/2014 12:51:22 -76.86, 153.19 122.90 07/22/2014 12:51:36 -76.85, 153.28 122.92 2.51 14
11 07/24/2014 17:35:43 -77.18, 80.94 122.06 07/24/2014 17:35:33 -77.19, 80.90 122.05 0.84 10




NCC Satellite Simultaneous Nadir Overpasses (SNOs) Prediction Service
